Home > Time Zones > World Clock > Weather > U.S.A. > Knox > Past weeks

Flag for U.S.A. Weather past 2 weeks in Knox, Indiana, U.S.A.

Now
83 °F

Sunny.


Feels Like: 85 °F
Forecast: 64 / 89 °F
Wind: 15 mph from Southwest

Location: Porter County Municipal Airport

Current Time: Jul 22, 2014 at 2:51:20 PM

Latest Report: Jul 22, 2014 at 11:53 AM


Visibility: 10 mi

Pressure: 30.04 "Hg

Humidity: 57%

Dew point: 66 °F

Location of KnoxLocation

Historic Weather in Knox — Graph

°F

Knox temperature yesterday

Maximum temperature yesterday: 83 °F (at 2:53 PM)
Minimum temperature yesterday: 58 °F (at 6:00 AM)
Average temperature yesterday: 72 °F

Past Weeks' High & Low Weather Summary

 TemperatureHumidityPressure
High86 °F (Jul 7, 3:53 PM)97% (Jul 12, 10:53 AM)30.24 "Hg (Jul 12, 10:53 AM)
Low49 °F (Jul 17, 2:53 AM)38% (Jul 10, 5:53 PM)29.58 "Hg (Jul 8, 6:53 AM)
Average68 °F73%30.00 "Hg
* Reported Jul 7 11:53 AM — Jul 22 11:53 AM, Knox, Weather by CustomWeather, © 2014

Note: Actual official high and low records may vary slightly from our data, if they occured in-between our weather recording intervals... More about our weather records

Advertising

Knox weather history for previous 24 hours

 ConditionsComfort  
Time TempWeatherWind HumidityBarometerVisibility
11:53 AM
Jul 22
83 °FSunny.15 mph57%30.04 "Hg10 mi
10:53 AM81 °FSunny.20 mph60%30.03 "Hg10 mi
9:53 AM79 °FSunny.14 mph65%30.03 "Hg10 mi
8:53 AM75 °FSunny.10 mph74%30.06 "Hg10 mi
7:53 AM71 °FSunny.7 mph81%30.09 "Hg8 mi
6:53 AM67 °FFog.3 mph87%30.09 "Hg5 mi
5:53 AM64 °FFog.No wind94%30.08 "Hg4 mi
4:53 AM65 °FFog.3 mph94%30.07 "Hg6 mi
3:53 AM66 °FClear.No wind90%30.07 "Hg8 mi
2:53 AM66 °FClear.3 mph90%30.07 "Hg8 mi
1:53 AM67 °FClear.No wind87%30.07 "Hg9 mi
12:53 AM70 °FClear.6 mph81%30.06 "Hg10 mi
11:53 PM
Jul 21
70 °FClear.3 mph81%30.07 "Hg10 mi
10:53 PM71 °FClear.5 mph78%30.07 "Hg10 mi
9:53 PM72 °FClear.3 mph76%30.09 "Hg10 mi
8:53 PM74 °FClear.5 mph74%30.09 "Hg10 mi
7:53 PM76 °FSunny.5 mph69%30.08 "Hg10 mi
6:53 PM81 °FSunny.6 mph56%30.08 "Hg10 mi
5:53 PM81 °FSunny.5 mph54%30.08 "Hg10 mi
4:53 PM82 °FSunny.6 mph53%30.08 "Hg10 mi
3:53 PM83 °FScattered clouds.7 mph51%30.08 "Hg10 mi
2:53 PM83 °FSunny.9 mph51%30.09 "Hg10 mi
Weather by CustomWeather, © 2014

See weather overviewHow to use our weather pages